Total_Precipitation_Accumulation
1.22 1.18 1.06 0.86 0.75 0.76 0.77 0.73 0.68 0.71 0.66 0.68 0.66 0.70 0.81 0.81 0.80 0.89 0.95 0.98 1.07 1.16 1.20 1.21 1.38 1.54 1.65 1.70 1.71 1.71 1.73 1.65 1.43 1.25 0.98 0.81 0.86 0.86 0.86 0.76 0.81 0.86 0.75
0.93 0.84 0.72 0.57 0.51 0.56 0.57 0.52 0.45 0.47 0.44 0.51 0.55 0.54 0.70 0.86 0.88 0.91 0.92 0.89 0.94 0.99 1.04 1.12 1.22 1.26 1.35 1.50 1.61 1.61 1.68 1.70 1.57 1.45 1.20 0.99 0.94 0.93 1.02 1.04 1.01 0.96 0.92
0.87 0.72 0.64 0.57 0.54 0.53 0.47 0.40 0.32 0.31 0.34 0.38 0.51 0.50 0.54 0.71 0.83 0.83 0.79 0.79 0.83 0.86 0.90 0.96 1.01 1.11 1.21 1.25 1.35 1.46 1.53 1.57 1.61 1.53 1.42 1.28 1.13 1.04 1.05 1.02 1.10 1.24 1.20
1.05 0.84 0.72 0.67 0.56 0.47 0.37 0.34 0.29 0.32 0.36 0.35 0.35 0.37 0.43 0.53 0.65 0.67 0.65 0.65 0.66 0.69 0.81 0.89 0.95 1.00 1.08 1.15 1.19 1.31 1.44 1.52 1.52 1.47 1.41 1.34 1.27 1.23 1.19 1.13 1.18 1.31 1.40
0.73 0.54 0.46 0.44 0.39 0.31 0.25 0.23 0.22 0.22 0.22 0.24 0.21 0.22 0.27 0.35 0.39 0.41 0.48 0.53 0.60 0.66 0.76 0.80 0.84 0.81 0.85 0.92 0.92 1.09 1.25 1.41 1.46 1.49 1.42 1.31 1.24 1.23 1.20 1.19 1.23 1.38 1.44
0.36 0.29 0.25 0.21 0.18 0.16 0.16 0.15 0.11 0.09 0.09 0.14 0.14 0.16 0.20 0.22 0.27 0.25 0.30 0.43 0.54 0.61 0.68 0.72 0.79 0.82 0.78 0.73 0.73 0.80 0.93 1.05 1.20 1.33 1.37 1.29 1.22 1.19 1.25 1.33 1.33 1.38 1.48
0.08 0.07 0.07 0.07 0.07 0.06 0.06 0.07 0.07 0.07 0.06 0.09 0.09 0.13 0.17 0.14 0.16 0.15 0.26 0.46 0.53 0.54 0.53 0.66 0.78 0.84 0.86 0.88 0.77 0.75 0.77 0.80 0.88 1.04 1.18 1.19 1.17 1.17 1.19 1.26 1.33 1.35 1.26
0.01 0.02 0.02 0.02 0.04 0.05 0.06 0.05 0.04 0.03 0.03 0.07 0.08 0.15 0.14 0.09 0.11 0.14 0.21 0.38 0.47 0.45 0.47 0.57 0.72 0.84 0.87 0.88 0.84 0.90 0.88 0.78 0.74 0.79 0.98 1.07 1.07 1.18 1.27 1.36 1.46 1.42 1.38
0.00 0.01 0.00 0.01 0.01 0.02 0.02 0.02 0.01 0.01 0.02 0.06 0.09 0.11 0.08 0.05 0.07 0.11 0.20 0.37 0.46 0.47 0.44 0.52 0.67 0.76 0.86 0.87 0.83 0.94 0.94 0.77 0.69 0.77 0.80 0.87 0.96 1.08 1.24 1.36 1.43 1.43 1.41
0.00 0.01 0.00 0.00 0.01 0.01 0.02 0.01 0.01 0.01 0.02 0.03 0.06 0.07 0.06 0.07 0.06 0.07 0.15 0.26 0.35 0.44 0.44 0.49 0.69 0.74 0.77 0.74 0.75 0.95 1.04 0.92 0.68 0.66 0.72 0.83 0.90 1.03 1.24 1.37 1.56 1.53 1.34
0.00 0.00 0.01 0.01 0.01 0.02 0.03 0.03 0.02 0.02 0.02 0.02 0.03 0.04 0.04 0.04 0.06 0.07 0.13 0.15 0.20 0.26 0.32 0.37 0.40 0.52 0.55 0.59 0.70 0.81 0.90 0.81 0.73 0.81 0.90 0.93 1.00 1.05 1.13 1.23 1.42 1.56 1.45
0.01 0.01 0.01 0.01 0.01 0.03 0.06 0.04 0.03 0.02 0.02 0.03 0.04 0.04 0.05 0.05 0.05 0.06 0.09 0.11 0.13 0.18 0.22 0.27 0.31 0.40 0.44 0.50 0.57 0.62 0.65 0.70 0.76 0.89 0.92 0.84 0.88 0.94 0.94 1.02 1.17 1.27 1.15
0.00 0.01 0.01 0.01 0.02 0.03 0.03 0.04 0.03 0.03 0.03 0.03 0.04 0.05 0.06 0.07 0.06 0.06 0.07 0.08 0.10 0.12 0.15 0.22 0.26 0.34 0.34 0.39 0.47 0.48 0.57 0.78 0.89 0.83 0.80 0.78 0.76 0.79 0.78 0.88 1.06 1.18 1.12
0.00 0.00 0.01 0.01 0.03 0.03 0.02 0.02 0.03 0.03 0.03 0.04 0.05 0.05 0.07 0.10 0.06 0.05 0.07 0.10 0.12 0.15 0.17 0.20 0.24 0.31 0.34 0.37 0.42 0.50 0.61 0.76 0.88 0.74 0.63 0.65 0.66 0.74 0.80 0.77 0.85 0.93 1.05
0.00 0.00 0.01 0.01 0.03 0.04 0.03 0.03 0.03 0.03 0.03 0.04 0.04 0.06 0.05 0.06 0.05 0.07 0.08 0.11 0.15 0.16 0.20 0.29 0.39 0.49 0.50 0.50 0.55 0.59 0.62 0.61 0.65 0.59 0.58 0.63 0.67 0.69 0.74 0.75 0.74 0.73 0.75
0.00 0.00 0.01 0.01 0.02 0.03 0.05 0.05 0.04 0.03 0.04 0.03 0.03 0.04 0.04 0.04 0.06 0.10 0.13 0.13 0.15 0.19 0.29 0.34 0.46 0.59 0.64 0.66 0.66 0.66 0.67 0.62 0.61 0.56 0.57 0.58 0.58 0.59 0.60 0.67 0.72 0.75 0.69
0.01 0.01 0.01 0.01 0.02 0.03 0.04 0.06 0.06 0.05 0.04 0.03 0.03 0.03 0.04 0.05 0.06 0.09 0.12 0.15 0.19 0.28 0.30 0.35 0.53 0.58 0.56 0.58 0.63 0.65 0.60 0.50 0.48 0.48 0.42 0.40 0.40 0.41 0.43 0.49 0.56 0.61 0.61
0.01 0.01 0.02 0.02 0.02 0.03 0.04 0.04 0.05 0.07 0.08 0.07 0.05 0.04 0.05 0.05 0.07 0.09 0.11 0.16 0.22 0.28 0.32 0.46 0.60 0.62 0.57 0.51 0.47 0.43 0.39 0.34 0.34 0.35 0.34 0.32 0.33 0.36 0.38 0.38 0.41 0.43 0.47
0.01 0.02 0.02 0.03 0.03 0.03 0.04 0.04 0.05 0.05 0.06 0.08 0.09 0.08 0.08 0.08 0.08 0.08 0.11 0.15 0.19 0.21 0.28 0.38 0.47 0.53 0.48 0.36 0.29 0.27 0.27 0.27 0.27 0.29 0.31 0.33 0.31 0.32 0.35 0.36 0.36 0.39 0.41
0.02 0.02 0.03 0.04 0.04 0.04 0.05 0.05 0.05 0.06 0.06 0.06 0.07 0.09 0.12 0.11 0.10 0.10 0.11 0.13 0.15 0.16 0.18 0.22 0.25 0.27 0.25 0.23 0.23 0.24 0.25 0.27 0.27 0.28 0.30 0.32 0.34 0.36 0.37 0.36 0.35 0.35 0.37
0.02 0.02 0.02 0.03 0.04 0.04 0.05 0.06 0.06 0.07 0.07 0.08 0.08 0.09 0.12 0.13 0.12 0.13 0.13 0.14 0.15 0.15 0.17 0.19 0.21 0.22 0.23 0.22 0.23 0.24 0.25 0.26 0.27 0.28 0.31 0.33 0.33 0.35 0.38 0.39 0.36 0.35 0.34
0.01 0.02 0.03 0.03 0.04 0.05 0.06 0.07 0.07 0.08 0.08 0.09 0.09 0.10 0.12 0.13 0.13 0.13 0.14 0.15 0.16 0.18 0.19 0.21 0.23 0.25 0.27 0.26 0.26 0.25 0.26 0.26 0.26 0.30 0.32 0.34 0.35 0.35 0.35 0.36 0.37 0.35 0.32
0.01 0.02 0.03 0.04 0.05 0.07 0.09 0.09 0.08 0.09 0.10 0.10 0.11 0.11 0.12 0.12 0.13 0.14 0.14 0.15 0.17 0.19 0.20 0.22 0.23 0.25 0.27 0.28 0.29 0.29 0.28 0.26 0.27 0.31 0.35 0.37 0.38 0.39 0.39 0.36 0.35 0.35 0.33
0.01 0.02 0.03 0.04 0.06 0.08 0.09 0.10 0.10 0.10 0.10 0.12 0.12 0.12 0.13 0.14 0.14 0.15 0.15 0.15 0.16 0.19 0.20 0.20 0.21 0.22 0.24 0.27 0.29 0.29 0.28 0.27 0.28 0.31 0.35 0.39 0.39 0.38 0.41 0.43 0.40 0.37 0.35
0.02 0.02 0.03 0.04 0.06 0.08 0.10 0.11 0.11 0.11 0.11 0.11 0.13 0.14 0.15 0.15 0.15 0.15 0.15 0.15 0.16 0.19 0.22 0.22 0.21 0.21 0.22 0.23 0.25 0.27 0.33 0.33 0.30 0.30 0.31 0.36 0.39 0.39 0.39 0.41 0.43 0.44 0.41
0.03 0.03 0.03 0.04 0.06 0.08 0.10 0.11 0.12 0.13 0.13 0.12 0.13 0.14 0.15 0.17 0.18 0.18 0.17 0.18 0.19 0.20 0.22 0.23 0.22 0.22 0.22 0.23 0.24 0.28 0.32 0.31 0.29 0.31 0.32 0.33 0.36 0.38 0.39 0.40 0.40 0.43 0.45